Track COSMOS 1195 now! 10-day predictions COSMOS 1195 is classified as:
1 11878U 80058D 18111.91245333 -.00000011 +00000-0 +34546-4 0 9997 2 11878 074.0159 296.9782 0016455 251.2065 263.1487 12.50570815725018